Back to catalog

STARLINK-31104

AliveCommunicationsVLEO
NORAD 58672·PAYLOAD·🇺🇸 United States

Launched Dec 29, 2023 from Cape Canaveral Space Force Station

Loading…

Next Passes (next 24 hours)

TLE

FreshSource: CelesTrak SupGP

Epoch: Sep 14, 2026, 13:44 UTC

1 58672C 23211F   26257.57270833  .00050162  00000+0  37456-3 0  2572
2 58672  42.9849  56.6578 0028898 305.1771 296.8088 15.71144639    15

Track STARLINK-31104 in real time with AllMySat

Download on the App Store